www.pogodaiklimat.ru

Погода и климат >> Архив погоды >> Россия >> Приморский край >> Находка


АРХИВ ПОГОДЫ в Находке

Время (UTC), дата Ветер
(напр.,м/с)
 
Видим.   Явления Облачность Т
(С)
Тd
(С)
f
(%)
Тe
(С)
Тes
(С)
Комфортность P
(гПа)
Po
(гПа)
Тmin
(С)
Tmax
(С)
R
(мм)
R24
(мм)
S
(см)
15 15.09 С 1 20 км ясно +12.2 +10.9 92 +12 +12 по сезону 1013.4 1006.7
18 15.09 СВ 1 20 км 10 баллов +11.6 +10.7 94 +11 +11 по сезону 1013.4 1006.7
21 15.09 СВ 1 20 км 10/0
[Cs]
+12.6 +10.8 89 +13 +13 по сезону 1011.8 1005.2 +11.5
00 16.09 В 1 50 км 3/0
[Cs]
+17.3 +12.8 75 +18 +25 тепло 1012.1 1005.6
03 16.09 В 1 50 км ясно +22.7 +12.3 52 +25 +40 комфорт 1011.8 1005.3
06 16.09 СЗ 3 50 км 1 балл +24.9 +11.8 44 +26 +31 жарко 1010.4 1004.0
09 16.09 СЗ 4 50 км ясно +21.3 +10.4 50 +23 +23 комфорт 1011.8 1005.3 +25.3
12 16.09 С 2 20 км ясно +17.9 +8.5 54 +18 +18 тепло 1014.6 1008.0
15 16.09 С 2 20 км ясно +14.3 +8.7 69 +14 +14 по сезону 1016.0 1009.3
18 16.09 С 3 20 км ясно +12.7 +5.1 60 +11 +11 по сезону 1017.5 1010.7
21 16.09 ЮЗ 1 50 км ясно +10.3 +5.6 73 +10 +10 прохладно 1016.8 1010.1 +10.3
00 17.09 СВ 1 50 км ясно +16.2 +7.6 57 +17 +24 тепло 1017.3 1010.7
03 17.09 С 1 50 км ясно +20.1 +5.7 39 +22 +36 комфорт 1017.3 1010.7
06 17.09 З 2 50 км 4 балла +21.7 +5.6 35 +22 +26 комфорт 1015.8 1009.3
09 17.09 ЮЗ 1 50 км 8/0
[Ac lent]
+16.3 +5.4 48 +17 +17 по сезону 1014.2 1007.7 +22.4
12 17.09 ЮЗ 1 20 км 7 баллов +13.6 +8.4 71 +14 +14 по сезону 1016.0 1009.3
15 17.09 штиль 0 20 км 9/0
[Ac und]
+12.0 +9.4 84 +11 +11 по сезону 1014.7 1008.0
18 17.09 В 1 20 км 10 баллов +11.8 +9.5 86 +12 +12 по сезону 1012.0 1005.3
21 17.09 З 1 20 км слаб. ливневой дождь {гроза} 8/8 600 м
[Cb cap]
+11.6 +10.7 94 +11 +11 по сезону 1010.2 1003.6 +11.4 0.7
00 18.09 СЗ 6-15
{16}
50 км {гроза, ливн. осадки} 1/0
[Ac trans]
+14.3 +2.5 45 +13 +15 по сезону 1012.6 1006.0
03 18.09 СЗ 6-14
{16}
50 км 3/3 600 м
[Cu hum]
+15.8 +0.1 34 +15 +18 по сезону 1012.7 1006.1
06 18.09 СЗ 7-16
{16}
50 км 3/1 600 м
[Cu hum Ci fib]
+14.8 -4.0 27 +13 +15 прохладно 1014.7 1008.0
09 18.09 СЗ 3
{16}
50 км 3/1 600 м
[Cu hum Ci fib]
+13.1 -2.4 34 +12 +12 прохладно 1016.0 1009.3 +16.2 0.0
12 18.09 З 2
{10}
20 км 3/0
[Ci fib]
+11.2 -1.0 43 +10 +10 прохладно 1017.7 1011.0
15 18.09 З 3 20 км 8/0
[Cs]
+11.3 -0.5 44 +10 +10 прохладно 1018.8 1012.0
18 18.09 З 3 20 км 10 баллов +10.9 -0.9 44 +9 +9 прохладно 1017.5 1010.7
21 18.09 С 2 50 км 3/0
[Ci fib]
+8.7 +2.4 65 +7 +7 холодно 1015.2 1008.5 +8.4
00 19.09 З 2
{10}
50 км 1/0
[Ci fib]
+15.6 +3.1 43 +16 +21 тепло 1014.9 1008.3
03 19.09 З 4
{15}
50 км ясно +17.6 +0.7 32 +17 +25 тепло 1014.6 1008.0
06 19.09 З 5 50 км ясно +17.8 +3.7 39 +17 +21 по сезону 1013.3 1006.7
09 19.09 СЗ 3
{12}
50 км ясно +16.7 -1.4 29 +17 +17 тепло 1014.7 1008.0 +18.0
12 19.09 З 3 20 км ясно +14.1 -2.8 31 +13 +13 по сезону 1016.0 1009.3
15 19.09 С 2
{10}
20 км ясно +12.7 -3.6 32 +12 +12 по сезону 1017.5 1010.7
18 19.09 ЮЗ 1 20 км ясно +10.2 -0.6 47 +10 +10 по сезону 1018.8 1012.0
21 19.09 ЮЗ 1 50 км ясно +6.0 +3.9 86 +5 +5 холодно 1019.3 1012.5 +5.9
00 20.09 СВ 1 50 км ясно +12.5 +6.3 66 +13 +19 по сезону 1019.8 1013.2 +5.8
03 20.09 З 2 50 км ясно +18.5 +2.7 35 +19 +31 опасность
простуды
1019.9 1013.3
06 20.09 З 2 50 км ясно +19.7 +4.6 37 +21 +27 комфорт 1018.6 1012.0
09 20.09 ЮЗ 2 50 км 3/0
[Ac lent]
+14.9 +7.7 62 +15 +15 по сезону 1020.0 1013.3 +19.8
12 20.09 С 1 20 км ясно +13.8 +7.8 67 +14 +14 по сезону 1021.5 1014.7
15 20.09 В 1 20 км ясно +9.7 +8.1 90 +9 +9 прохладно 1022.9 1016.0
18 20.09 С 1 20 км 10 баллов +9.8 +8.6 92 +9 +9 прохладно 1021.5 1014.7
21 20.09 СВ 1 50 км в посл. час ливневой дождь 10/10 600 м
[Cb cap]
+10.0 +8.8 92 +9 +9 прохладно 1020.7 1014.0 +9.2 0.0
00 21.09 штиль 0 20 км {ливн. осадки} 10/10 600 м
[Sc]
+13.3 +10.0 80 +13 +13 по сезону 1020.9 1014.3
03 21.09 ЮЗ 3 50 км 4 балла +21.4 +14.5 65 +24 +30 комфорт 1021.3 1014.7
06 21.09 З 3 50 км мгла ?/? +20.8 +13.2 62 +24 +28 комфорт 1021.3 1014.7
09 21.09 З 2 50 км 4/0
[Ci fib]
+17.6 +12.3 71 +18 +18 тепло 1021.4 1014.7 +21.4
12 21.09 З 3 20 км 3/0
[Ci fib]
+17.5 +8.9 57 +18 +18 тепло 1022.8 1016.2
15 21.09 ЮЗ 1 20 км 4 балла +11.2 +8.9 86 +11 +11 по сезону 1024.1 1017.3
18 21.09 штиль 0 20 км ясно +8.9 +7.8 93 +8 +8 прохладно 1024.2 1017.3
21 21.09 СВ 1 20 км 10/0
[Cs]
+8.8 +7.6 92 +8 +8 прохладно 1024.6 1017.8 +8.7
00 22.09 штиль 0 50 км 4/0
[Cs]
+13.8 +8.7 71 +14 +20 тепло 1025.4 1018.7
03 22.09 В 2 50 км 10 баллов +19.6 +9.2 51 +21 +21 комфорт 1025.3 1018.7
06 22.09 ЮЗ 1 50 км 10 баллов +20.2 +9.7 51 +23 +23 комфорт 1022.6 1016.0
09 22.09 В 1 50 км 10 баллов +16.8 +8.5 58 +18 +18 тепло 1022.7 1016.0 +20.8

 

Местоположение метеостанции Находка (Приморский край, Россия): широта 42.80 долгота 132.80 высота над уровнем моря 56 м.

В архиве по умолчанию представлена погода в Находке за последнюю неделю. Архивные данные за месяц целиком и за предыдущие месяцы, начиная с января 2011 года, Вы можете получить, выбрав интересующий диапазон дат из раскрывающегося списка и нажав кнопку "Ввод!".


*Определитесь, кто Вы:
робот инопланетянин человек

Внимание! Время в таблицах - всемирное. Для получения местного времени необходимо прибавить поправку, которая равна 10 ч.

Смотрите также архив погоды в соседних городах и на ближайших метеорологических станциях:

Погода в Партизанске (Приморский край, Россия) (42 км)
Погода на Мысе Назимова (Приморский край, Россия) (78 км)
Погода в Многоудобном (Приморский край, Россия) (79 км)
Погода в Владивостоке (Приморский край, Россия) (81 км)
Погода в Преображении (Приморский край, Россия) (90 км)
Погода в Лазо (Приморский край, Россия) (105 км)
Погода в Барабаше (Приморский край, Россия) (122 км)
Погода в Анучино (Приморский край, Россия) (131 км)
Погода в Гамове (Приморский край, Россия) (132 км)
Погода в Тимирязевском (Приморский край, Россия) (140 км)

Пояснения к столбцам:

Ветер - указаны скорость ветра в м/с - средняя за 10 мин, порывы в срок и между сроками (в фигурных скобках) и направление, откуда дует ветер: С - северный, СВ - северо-восточный, В - восточный, ЮВ - юго-восточный, Ю - южный, ЮЗ - юго-западный, З - западный, СЗ - северо-западный.
Видимость - горизонтальная дальность видимости в метрах или километрах. При видимости от 1 до 10 км при отсутствии осадков обычно наблюдается дымка, при ухудшении видимости до 1 км и менее - туман. В сухую погоду видимость может ухудшаться дымом, пылью или мглою.
Явления - указаны атмосферные явления, наблюдавшиеся в срок или в последний час перед сроком; фигурными скобками обозначены явления, наблюдавшиеся между сроками (за 1-3 часа до срока); квадратными скобками обозначены град или гололедные отложения с указанием их диаметра в мм.
Облачность - указаны через наклонную черту общая и нижняя облачность в баллах и высота нижней границы облаков в метрах; квадратными скобками обозначены формы облаков: Ci - перистые, Cs - перисто-слоистые, Cc - перисто-кучевые, Ac - высококучевые, As - высокослоистые, Sc - слоисто-кучевые, Ns - слоисто-дождевые, Cu - кучевые, Cb - кучево-дождевые. Подробнее классификацию облаков см. в Атласе облаков (PDF).
T - Температура воздуха - температура, измеренная на высоте 2 м над землей.
Td - Температура точки росы - температура, при понижении до которой содержащийся в воздухе водяной пар достигнет насыщения.
f - Относительная влажность воздуха - влажноcть воздуха, измеренная на высоте 2 м над землей.
Te - Эффективная температура - температура, которую ощущает одетый по сезону человек в тени. Характеристика душности погоды. При расчете учитывается влияние влажности воздуха и скорости ветра на теплоощущения человека.
Tes - Эффективная температура на солнце - температура, которую ощущает человек, с поправкой на солнечный нагрев. Характеристика знойности погоды. Зависит от высоты солнца над горизонтом, облачности и скорости ветра. Ночью, в пасмурную погоду, а также при ветре 12 м/с и более поправка равна нулю.
P - Атмосферное давление - приведенное к уровню моря атмосферное давление.
Po - Атмосферное давление - измеренное на уровне метеостанции атмосферное давление.
Tmin - Минимальная температура - минимум температуры воздуха на высоте 2 м над землей.
Tmax - Максимальная температура - максимум температуры воздуха на высоте 2 м над землей.
R - Количество осадков - Количество выпавших осадков за период времени, мм. При наведении курсора мыши на число - период времени, за который выпало указанное количество осадков.
R24 - Количество осадков - Количество выпавших осадков за 24 часа, мм.
S - Снежный покров - Высота снежного покрова, см. При наведении курсора мыши на число - состояние снежного покрова и степень покрытия местности в баллах.